Location: Newark
(48.5667°N, 7.8167°E)
Time: 05:12:01
(UTC+00:00)

ISS - Pass Details

Date: 23 September 2021
Orbit: 417 x 423 km, 51.6° (Epoch: 18 October)

Event Time Altitude Azimuth Distance (km) Brightness Sun altitude
Rises 18:03:55 0° 253° (WSW) 2,357 1.4 -7.4°
Reaches altitude 10° 18:06:00 10° 256° (WSW) 1,496 0.3 -7.7°
Maximum altitude 18:09:21 75° 341° (NNW) 439 -3.6 -8.3°
Drops below altitude 10° 18:12:44 10° 68° (ENE) 1,504 -1.5 -8.8°
Enters shadow 18:12:54 - 68° (ENE) 1,570 -1.4 -8.8°
